Weather in Novotroickoe

Ukraine / Kherson District     46˚21′15″N   34˚20′10″E
temp.,
°C
wind,
m/s
gust,
m/s
humid.,
%
clouds,
%
prec.,
mm/h
press.,
hPa
HPBL,
m
3 december, thu
thu323:00+5˚ene599065 0.0 1025290
02:00+5˚ene489267 0.0 1024230
05:00+6˚ene478899 0.0 1024265
08:00+5˚ene599299 0.0 1025277
11:00+8˚e688098 0.0 1025424
14:00+8˚e687750 0.0 1024437
17:00+6˚e610884 0.0 1024344
20:00+6˚e610913 0.0 1023312
4 december, fri
fri423:00+6˚e598843 0.0 1024300
02:00+6˚e6119125 0.0 1024323
05:00+5˚e7129212 0.0 1023377
08:00+5˚e7129127 0.0 1024424
11:00+7˚e8128030 0.0 1023496
14:00+7˚e8128118 0.0 1023454
17:00+6˚e10148448 0.0 1023498
20:00+6˚e9158636 0.0 1024492
5 december, sat
sat523:00+6˚e813895 0.0 1024469
02:00+6˚e814896 0.0 1024473
05:00+5˚e9148539 0.0 1024543
08:00+5˚e9128369 0.0 1025635
11:00+5˚e81181100 0.0 1026642
14:00+4˚e91182100 0.1 1025647
17:00+4˚e91279100 0.0 1026767
20:00+5˚e91274100 0.1 1027902
6 december, sun
sun623:00+4˚e9127397 0.0 1027828
02:00+3˚ene8137486 0.0 1027804
05:00+2˚ene8147653 0.0 1027768
08:00+2˚ene8147327 0.0 1027790
11:00+4˚e11156611 0.0 1027880
14:00+4˚e1115656 0.0 1026900
17:00+2˚ene1016690 0.0 1027820
20:00+2˚e1015670 0.0 1027828
7 december, mon
mon723:00+1˚e915710 0.0 1027793
02:00+1˚e1016750 0.0 1027807
05:00e9157934 0.0 1027864
08:00+1˚ene10148867 0.1 1027829
11:00+3˚e101383100 0.2 1026957
14:00+3˚e111581100 0.3 1026760
17:00+4˚e11168099 0.0 1026786
20:00+3˚e121679100 0.0 1026760